Vorticity
9 5 6 6 7 10 8 9 8 8 10 10 9 8 5 4 4 4 5 11 15 13 12 13 11 8 6 6 5 4 4 4 3 5 5 4 9 -6 -4 -0 -1 1 -3 -2 1
4 6 3 5 7 9 12 8 9 9 8 9 8 11 14 14 14 15 14 11 11 9 8 8 6 5 6 5 4 5 5 3 1 -0 0 -2 3 4 4 1 -1 -1 0 2 2
3 3 6 7 10 11 11 10 10 8 8 10 9 10 10 11 9 8 7 10 8 6 6 6 7 6 4 4 4 3 5 1 -0 3 2 -0 1 2 5 2 7 9 12 10 8
4 5 5 9 12 12 13 12 11 11 11 10 9 10 8 7 6 6 9 7 5 5 5 7 6 5 3 3 6 7 2 4 3 2 4 3 0 6 5 6 -1 -2 2 2 2
2 3 4 7 11 12 10 9 10 10 10 9 8 6 5 7 6 8 7 5 5 6 6 5 6 5 4 0 3 1 -1 2 -0 2 7 8 5 3 2 2 3 3 3 3 3
2 6 4 7 11 11 8 8 9 8 7 8 8 6 5 9 9 8 6 5 6 6 5 8 7 5 9 6 0 -1 3 3 2 3 8 3 -4 12 5 3 4 5 5 4 5
4 0 3 5 11 9 8 6 9 8 7 6 7 8 8 10 8 5 6 5 7 3 8 2 6 1 1 2 0 5 1 4 11 11 2 -7 -2 9 9 7 6 5 8 6 5
2 5 5 6 12 9 11 8 9 11 10 10 11 11 9 6 7 8 8 9 8 9 5 1 4 3 3 4 6 7 5 3 10 9 0 1 0 11 8 4 10 9 5 13 19
3 0 4 6 11 11 12 13 10 10 11 12 10 13 9 9 11 10 12 8 6 2 3 1 4 3 5 6 3 1 4 7 4 4 -4 7 9 7 5 10 8 20 9 -2 6
1 4 2 4 6 12 14 16 12 8 9 10 10 7 9 7 6 5 9 3 6 6 3 3 5 3 6 2 4 4 8 3 4 -3 4 6 5 4 11 12 16 -2 -2 6 7
2 3 5 4 3 4 5 7 9 12 12 12 9 10 10 8 5 8 8 9 7 8 8 7 7 5 3 3 7 8 5 4 -0 3 7 5 4 5 10 12 -2 4 7 8 26
1 2 2 -0 3 2 2 3 5 6 8 6 8 10 9 8 13 12 11 10 10 8 8 7 7 6 5 7 5 5 4 2 3 3 8 7 4 0 10 0 3 10 11 31 35
2 2 1 3 3 3 1 4 3 3 3 5 6 16 17 13 10 9 8 6 7 8 8 9 6 7 8 3 5 7 2 3 5 5 6 6 -1 9 6 4 10 14 31 27 16
1 -0 2 -0 1 2 3 1 3 3 3 5 9 13 14 16 15 12 9 10 8 7 8 9 7 6 4 5 9 7 3 4 6 8 1 8 13 1 4 9 10 30 27 21 33
1 2 -1 2 2 2 2 3 2 2 1 6 6 5 10 14 14 10 9 7 9 9 9 9 7 6 7 11 6 4 5 7 9 4 1 0 20 9 9 4 26 33 28 29 14
1 1 -3 -7 1 1 2 3 1 7 3 7 1 1 8 5 7 9 8 5 11 12 9 11 11 11 12 9 8 11 11 6 4 1 6 8 2 11 13 9 32 34 24 11 4
2 -1 -2 7 7 0 2 2 2 2 6 3 2 3 6 3 7 8 4 6 6 6 1 24 8 13 14 14 16 12 7 8 3 3 6 11 4 2 9 24 26 33 10 4 7
11 12 13 10 4 0 0 2 -1 2 5 3 4 3 0 -0 4 0 -1 -1 3 6 10 9 14 14 14 14 10 7 9 3 -1 3 7 6 3 2 12 57 18 19 8 5 9
6 8 5 5 4 3 2 1 5 7 3 3 6 2 2 6 3 -0 -0 2 3 9 14 10 20 15 16 11 7 8 4 3 3 8 6 6 -3 11 21 54 15 12 4 7 4
5 6 7 8 9 7 6 5 6 8 4 3 6 3 5 4 3 1 -1 1 2 2 3 3 17 14 12 10 8 8 4 2 5 6 4 4 -3 1 31 68 15 8 5 5 1
4 5 6 6 7 8 9 9 9 5 2 4 3 6 5 5 6 7 3 3 -0 2 6 11 12 15 12 9 7 6 5 3 8 9 5 2 -1 13 44 45 13 10 7 7 2
4 4 4 4 5 5 9 11 10 4 3 1 2 3 5 3 6 7 6 4 0 1 1 2 12 15 11 9 8 5 5 4 11 6 4 0 9 17 52 27 12 10 8 6 -0
4 3 3 3 4 4 5 10 10 6 3 2 0 2 5 3 3 5 4 5 -1 1 2 5 6 9 14 10 9 5 4 8 8 6 6 5 8 16 57 23 14 11 7 5 1
5 4 4 5 4 4 4 5 9 7 4 3 1 3 5 5 4 6 4 4 0 4 5 8 16 15 14 9 5 6 6 11 6 5 1 4 4 11 59 25 19 9 9 2 5
4 4 4 5 5 6 4 5 8 9 7 4 4 3 5 7 4 6 4 4 1 1 1 4 17 17 13 7 7 7 9 10 6 5 3 3 2 18 53 24 18 9 8 2 9
5 5 4 4 5 6 5 5 6 7 9 7 6 6 7 6 6 5 5 5 1 2 4 7 10 17 11 6 6 5 11 9 4 5 3 4 5 34 34 22 23 8 4 5 6
7 8 7 5 5 6 5 6 6 6 7 8 7 7 7 5 7 5 5 4 3 2 6 5 13 15 9 5 7 7 12 8 6 5 4 3 3 17 39 20 18 15 6 5 6
Height
5900 5899 5898 5897 5895 5894 5893 5892 5891 5891 5891 5890 5890 5891 5891 5890 5891 5891 5891 5891 5890 5889 5888 5887 5887 5887 5886 5884 5883 5882 5881 5879 5879 5877 5875 5872 5869 5865 5861 5856 5852 5846 5840 5835 5829
5901 5901 5899 5898 5896 5894 5893 5892 5891 5891 5890 5890 5890 5890 5890 5890 5890 5892 5892 5891 5890 5889 5888 5888 5888 5887 5885 5884 5884 5882 5882 5880 5879 5876 5873 5870 5864 5858 5854 5849 5844 5838 5831 5825 5819
5902 5902 5901 5899 5896 5894 5893 5892 5892 5891 5891 5891 5891 5891 5891 5891 5893 5892 5892 5891 5890 5890 5889 5889 5888 5886 5885 5884 5884 5884 5882 5880 5877 5873 5867 5864 5859 5853 5849 5844 5838 5832 5825 5819 5811
5904 5903 5902 5899 5897 5895 5894 5894 5893 5892 5892 5892 5892 5892 5892 5893 5895 5893 5892 5892 5891 5891 5891 5890 5889 5887 5886 5885 5884 5882 5879 5876 5872 5868 5864 5860 5856 5849 5843 5838 5830 5823 5816 5808 5799
5905 5904 5903 5901 5899 5897 5896 5896 5895 5894 5894 5894 5894 5894 5894 5895 5895 5894 5893 5893 5893 5892 5891 5890 5888 5887 5887 5886 5884 5881 5878 5874 5870 5867 5860 5856 5850 5845 5838 5830 5823 5815 5806 5798 5789
5906 5905 5904 5903 5901 5899 5898 5897 5897 5896 5896 5896 5896 5896 5896 5896 5895 5895 5895 5894 5893 5892 5891 5890 5889 5887 5886 5884 5881 5879 5876 5871 5866 5861 5856 5850 5846 5840 5831 5821 5814 5805 5796 5786 5776
5907 5907 5906 5905 5903 5901 5900 5899 5898 5897 5897 5897 5897 5898 5897 5897 5897 5897 5896 5896 5894 5893 5892 5891 5889 5888 5885 5882 5880 5876 5871 5866 5861 5857 5852 5845 5839 5831 5821 5813 5804 5795 5784 5774 5762
5908 5908 5908 5907 5905 5903 5901 5901 5900 5899 5899 5899 5899 5899 5898 5898 5898 5897 5897 5896 5895 5894 5893 5890 5888 5886 5883 5880 5877 5872 5867 5860 5858 5851 5846 5839 5828 5822 5813 5803 5793 5781 5770 5758 5746
5909 5910 5910 5909 5907 5905 5903 5902 5902 5901 5901 5900 5900 5900 5900 5900 5899 5898 5898 5897 5895 5894 5892 5889 5887 5884 5881 5877 5873 5869 5863 5857 5849 5848 5839 5832 5821 5811 5803 5792 5780 5767 5755 5740 5722
5910 5911 5911 5911 5910 5907 5906 5904 5904 5903 5903 5902 5902 5902 5901 5901 5899 5898 5897 5896 5895 5893 5891 5888 5885 5881 5878 5874 5870 5865 5860 5853 5845 5843 5834 5823 5813 5802 5793 5779 5766 5751 5735 5718 5702
5911 5912 5913 5913 5912 5910 5909 5908 5908 5907 5905 5904 5903 5902 5901 5900 5899 5897 5896 5895 5893 5891 5889 5886 5883 5879 5876 5871 5867 5861 5855 5847 5841 5833 5828 5816 5804 5793 5781 5766 5751 5734 5718 5702 5684
5912 5913 5914 5914 5914 5913 5912 5911 5910 5910 5908 5906 5904 5902 5900 5899 5898 5897 5895 5894 5892 5889 5886 5885 5881 5877 5872 5867 5862 5857 5850 5843 5836 5826 5818 5807 5794 5783 5768 5752 5736 5719 5702 5682 5668
5912 5914 5914 5915 5915 5915 5914 5913 5912 5912 5910 5908 5906 5903 5901 5899 5897 5896 5895 5893 5891 5888 5885 5881 5878 5873 5868 5863 5858 5851 5845 5838 5830 5822 5811 5797 5781 5768 5754 5741 5725 5707 5688 5673 5659
5912 5914 5915 5916 5918 5916 5915 5915 5914 5913 5912 5912 5908 5906 5903 5900 5899 5897 5895 5894 5890 5887 5883 5879 5874 5869 5864 5859 5853 5847 5840 5833 5824 5815 5802 5789 5769 5752 5744 5731 5713 5696 5679 5663 5653
5912 5914 5915 5916 5917 5917 5917 5916 5915 5914 5913 5914 5911 5908 5905 5903 5900 5898 5894 5892 5889 5885 5881 5877 5870 5864 5859 5853 5848 5843 5834 5828 5818 5807 5792 5776 5764 5751 5737 5720 5706 5689 5675 5663 5652
5911 5913 5914 5916 5917 5917 5917 5917 5917 5917 5915 5915 5912 5910 5908 5904 5901 5898 5895 5891 5887 5884 5878 5871 5865 5859 5852 5848 5842 5835 5829 5821 5811 5799 5783 5774 5761 5745 5728 5705 5694 5686 5670 5661 5651
5909 5911 5913 5915 5917 5917 5917 5917 5919 5917 5917 5917 5913 5911 5908 5905 5902 5898 5895 5891 5886 5881 5874 5869 5861 5855 5848 5841 5837 5830 5825 5815 5804 5792 5784 5770 5756 5739 5721 5702 5681 5677 5667 5659 5649
5906 5909 5911 5913 5915 5916 5917 5918 5917 5917 5916 5915 5913 5911 5908 5905 5902 5898 5894 5890 5885 5879 5872 5864 5856 5849 5842 5837 5831 5825 5817 5808 5799 5790 5778 5762 5753 5738 5716 5696 5681 5674 5665 5658 5649
5904 5907 5909 5911 5913 5915 5916 5916 5916 5916 5915 5914 5913 5910 5908 5904 5902 5898 5894 5889 5883 5876 5870 5861 5854 5846 5839 5834 5829 5820 5813 5805 5797 5783 5769 5759 5745 5733 5713 5695 5682 5672 5664 5656 5647
5901 5904 5907 5909 5911 5912 5914 5914 5914 5914 5914 5913 5912 5910 5907 5904 5901 5897 5892 5888 5882 5874 5867 5859 5851 5843 5836 5831 5827 5819 5811 5800 5789 5778 5766 5757 5740 5728 5709 5692 5679 5670 5661 5655 5647
5899 5902 5904 5907 5908 5910 5911 5912 5912 5912 5912 5912 5910 5908 5906 5903 5899 5895 5891 5887 5880 5872 5864 5856 5848 5843 5835 5828 5821 5814 5806 5796 5785 5774 5760 5745 5730 5714 5696 5684 5676 5668 5661 5653 5646
5895 5899 5902 5904 5907 5907 5908 5909 5910 5910 5910 5909 5908 5906 5904 5901 5898 5894 5889 5884 5878 5871 5863 5855 5846 5839 5832 5828 5818 5811 5802 5792 5782 5772 5757 5741 5724 5705 5693 5682 5673 5668 5663 5656 5647
5892 5895 5898 5901 5904 5905 5906 5907 5907 5908 5907 5907 5906 5904 5902 5900 5897 5892 5887 5882 5876 5869 5861 5853 5844 5835 5826 5822 5816 5807 5800 5791 5782 5770 5755 5740 5727 5703 5691 5681 5672 5669 5663 5657 5647
5889 5892 5896 5898 5900 5902 5903 5904 5904 5904 5904 5904 5903 5902 5900 5897 5894 5889 5884 5879 5874 5867 5860 5852 5843 5834 5828 5821 5814 5807 5798 5788 5777 5765 5754 5740 5723 5705 5690 5679 5675 5669 5661 5655 5646
5885 5889 5892 5895 5896 5898 5900 5901 5901 5901 5901 5901 5900 5899 5897 5894 5891 5887 5882 5877 5872 5866 5859 5851 5842 5834 5827 5820 5812 5805 5796 5785 5774 5763 5751 5739 5720 5699 5686 5677 5672 5667 5662 5657 5652
5881 5885 5887 5890 5892 5895 5896 5897 5898 5897 5898 5898 5897 5896 5894 5891 5889 5885 5880 5875 5870 5864 5857 5848 5840 5832 5826 5818 5809 5801 5793 5782 5771 5760 5748 5733 5716 5695 5683 5678 5673 5667 5664 5659 5651
5875 5879 5883 5886 5888 5891 5892 5893 5894 5894 5894 5894 5893 5892 5891 5889 5886 5882 5878 5873 5867 5862 5855 5847 5838 5830 5822 5815 5806 5800 5789 5780 5768 5757 5745 5730 5716 5699 5684 5678 5673 5668 5661 5658 5652